Weather History for Vero Beach, FL

Change the Weather History Date:

Sunday, May 12, 2013

  Actual Average Record
Temperature  
Mean Temperature 78 °F 76 °F  
Max Temperature 87 °F 84 °F 95 °F (2003)
Min Temperature 69 °F 67 °F 55 °F (1986)
Degree Days  
Heating Degree Days 0 0  
Month to date heating degree days 0 0  
Since 1 July heating degree days 398 455  
Cooling Degree Days 13 10  
Month to date cooling degree days 101 113  
Year to date cooling degree days 692 571  
Growing Degree Days 28 (Base 50)    
Moisture  
Dew Point 71 °F    
Average Humidity 79    
Maximum Humidity 100    
Minimum Humidity 57    
Precipitation  
Precipitation 0.44 in 0.09 in 1.50 in (1968)
Month to date precipitation 6.07 0.99  
Year to date precipitation 13.10 13.00  
Sea Level Pressure  
Sea Level Pressure 30.00 in    
Wind  
Wind Speed 6 mph (SW)    
Max Wind Speed 18 mph    
Max Gust Speed 23 mph    
Visibility 9 miles    
Events Rain , Thunderstorm    
T = Trace of Precipitation, MM = Missing Value Source: NWS Daily Summary

Daily Weather History Graph

Daily Weather History Graph

Search for Another Location

Airport:

Trip Planner

Search our weather history database for the weather conditions in past years. The results will help you decide how hot, cold, wet, or windy it might be!

Date:

Astronomy

May. 12, 2013 Rise Set
Actual Time 6:34 AM EDT 8:02 PM EDT
Civil Twilight 6:08 AM EDT 8:27 PM EDT
Nautical Twilight 5:38 AM EDT 8:57 PM EDT
Astronomical Twilight 5:07 AM EDT 9:29 PM EDT
Moon 8:31 AM EDT (5/12) 10:25 PM EDT (5/12)
Length of Visible Light 14h 18m
Length of Day
13h 27m
Waxing Crescent, 6% of the Moon is Illuminated
May 12
Waxing Crescent
May 18
First Quarter
May 25
Full
May 31
Last Quarter
Jun 8
New

Hourly Weather History & Observations

Time (EDT) Temp. Heat Index Dew Point Humidity Pressure Visibility Wind Dir Wind Speed Gust Speed Precip Events Conditions
12:53 AM 70.0 °F - 68.0 °F 93% 30.04 in 10.0 mi South 3.5 mph - N/A   Clear
1:53 AM 69.1 °F - 68.0 °F 96% 30.04 in 10.0 mi SW 3.5 mph - N/A   Partly Cloudy
2:53 AM 70.0 °F - 69.1 °F 97% 30.02 in 10.0 mi South 3.5 mph - N/A   Mostly Cloudy
3:53 AM 69.1 °F - 69.1 °F 100% 29.99 in 10.0 mi South 5.8 mph - N/A   Clear
4:53 AM 69.1 °F - 69.1 °F 100% 29.96 in 10.0 mi South 4.6 mph - N/A   Clear
5:53 AM 69.1 °F - 69.1 °F 100% 29.97 in 10.0 mi SSW 3.5 mph - N/A   Clear
6:53 AM 69.1 °F - 69.1 °F 100% 29.99 in 10.0 mi SW 4.6 mph - N/A   Clear
7:53 AM 72.0 °F - 70.0 °F 93% 30.00 in 10.0 mi SSW 8.1 mph - N/A   Clear
8:53 AM 75.9 °F - 71.1 °F 85% 30.04 in 10.0 mi SW 8.1 mph - N/A   Clear
9:43 AM 78.8 °F - 73.4 °F 83% 30.03 in 10.0 mi West 10.4 mph - N/A   Mostly Cloudy
9:53 AM 79.0 °F - 73.0 °F 82% 30.03 in 10.0 mi WSW 10.4 mph - N/A   Mostly Cloudy
10:20 AM 80.6 °F 85.4 °F 73.4 °F 79% 30.03 in 10.0 mi WSW 12.7 mph - N/A   Mostly Cloudy
10:53 AM 82.9 °F 88.8 °F 73.0 °F 72% 30.03 in 10.0 mi WSW 10.4 mph - N/A   Mostly Cloudy
11:53 AM 84.0 °F 89.6 °F 72.0 °F 67% 30.04 in 10.0 mi WSW 12.7 mph - N/A   Mostly Cloudy
12:53 PM 84.9 °F 89.4 °F 70.0 °F 61% 30.01 in 10.0 mi WSW 8.1 mph - N/A   Mostly Cloudy
1:00 PM 84.2 °F 88.4 °F 69.8 °F 62% 30.01 in 10.0 mi WSW 8.1 mph - N/A   Mostly Cloudy
1:53 PM 84.9 °F 90.7 °F 72.0 °F 65% 29.99 in 10.0 mi NW 8.1 mph - 0.00 in   Mostly Cloudy
2:53 PM 86.0 °F 90.7 °F 70.0 °F 59% 29.97 in 10.0 mi Variable 4.6 mph - N/A   Scattered Clouds
3:28 PM 84.2 °F 89.6 °F 71.6 °F 66% 29.97 in 10.0 mi SW 15.0 mph 23.0 mph N/A   Mostly Cloudy
3:53 PM 84.9 °F 90.1 °F 71.1 °F 63% 29.97 in 10.0 mi WSW 11.5 mph - N/A   Partly Cloudy
4:53 PM 84.0 °F 89.6 °F 72.0 °F 67% 29.97 in 10.0 mi Calm Calm - N/A   Partly Cloudy
5:53 PM 80.1 °F 83.8 °F 72.0 °F 76% 29.97 in 10.0 mi ENE 6.9 mph - N/A   Mostly Cloudy
6:03 PM 80.6 °F 85.4 °F 73.4 °F 79% 29.97 in 10.0 mi North 4.6 mph - N/A Thunderstorm Overcast
6:35 PM 82.4 °F 87.2 °F 71.6 °F 70% 29.97 in 10.0 mi Calm Calm - N/A   Partly Cloudy
6:53 PM 80.1 °F 84.2 °F 73.0 °F 79% 29.97 in 10.0 mi East 5.8 mph - N/A   Partly Cloudy
7:26 PM 78.8 °F - 73.4 °F 83% 29.98 in 10.0 mi ESE 9.2 mph - N/A Thunderstorm Scattered Clouds
7:44 PM 80.6 °F 85.4 °F 73.4 °F 79% 29.99 in 1.2 mi Calm Calm - 0.00 in Rain Light Rain
7:51 PM 78.8 °F - 73.4 °F 83% 29.99 in 0.5 mi Variable 3.5 mph - 0.14 in Rain Rain
7:53 PM 78.1 °F - 72.0 °F 81% 29.99 in 0.8 mi Variable 3.5 mph - 0.14 in Rain Light Rain
7:55 PM 78.8 °F - 71.6 °F 78% 29.99 in 4.0 mi NNW 4.6 mph - 0.00 in Rain Light Rain
8:53 PM 75.9 °F - 71.1 °F 85% 30.01 in 6.0 mi South 6.9 mph - 0.30 in   Haze
9:07 PM 77.0 °F - 71.6 °F 83% 30.01 in 10.0 mi SSW 4.6 mph - N/A Thunderstorm Mostly Cloudy
9:50 PM 75.2 °F - 71.6 °F 89% 30.03 in 10.0 mi SSW 5.8 mph - N/A   Mostly Cloudy
9:53 PM 75.9 °F - 72.0 °F 87% 30.03 in 10.0 mi SSW 5.8 mph - N/A   Mostly Cloudy
10:53 PM 75.9 °F - 72.0 °F 87% 30.04 in 10.0 mi SW 3.5 mph - N/A   Clear
11:53 PM 75.0 °F - 72.0 °F 90% 30.03 in 10.0 mi SW 3.5 mph - N/A   Clear